Flag for Antigua and Barbuda Weather past 2 weeks in Saint John's, Antigua and Barbuda

Now
82 °F

Passing clouds.


Feels Like: 88 °F
Forecast: N/A
Wind: 14 mph from East

Location: Vc Bird International Antigua Airport

Current Time: Aug 2, 2015 at 7:33:44 PM

Latest Report: Aug 2, 2015 at 7:00 PM


Visibility: N/A

Pressure: 29.98 "Hg

Humidity: 74%

Dew point: 73 °F

Location of Saint John'sLocation

Historic Weather in Saint John's — Graph

°F

Saint John's temperature yesterday

Maximum temperature yesterday: 88 °F (at 11:00 AM)
Minimum temperature yesterday: 79 °F (at 5:00 AM)
Average temperature yesterday: 83 °F

Past Weeks' High & Low Weather Summary

 TemperatureHumidityPressure
High88 °F (Jul 24, 1:00 PM)94% (Jul 20, 4:00 PM)30.12 "Hg (Jul 20, 4:00 PM)
Low75 °F (Jul 22, 8:00 AM)55% (Aug 1, 1:00 PM)29.92 "Hg (Aug 2, 4:00 AM)
Average82 °F74%30.03 "Hg
* Reported Jul 18 6:00 PM — Aug 2 6:00 PM, Saint John's, Weather by CustomWeather, © 2015

Note: Actual official high and low records may vary slightly from our data, if they occured in-between our weather recording intervals... More about our weather records

Advertising

Saint John's weather history for previous 24 hours

 ConditionsComfort  
Time TempWeatherWind HumidityBarometerVisibility
6:00 PM
Sun, Aug 2
82 °FPassing clouds.13 mph74%29.95 "HgN/A
5:00 PM84 °FScattered clouds.15 mph70%29.92 "HgN/A
4:00 PM82 °FPartly sunny.8 mph84%29.95 "HgN/A
3:00 PM79 °FBroken clouds.9 mph89%29.95 "HgN/A
2:00 PM88 °FPartly sunny.14 mph62%29.95 "HgN/A
1:00 PM86 °FScattered clouds.13 mph66%29.95 "HgN/A
12:00 PM84 °FPartly sunny.15 mph74%29.98 "HgN/A
11:00 AM86 °FPassing clouds.12 mph70%29.98 "HgN/A
10:00 AM84 °FScattered clouds.3 mph70%29.98 "HgN/A
9:00 AM81 °FBroken clouds.14 mph84%29.98 "HgN/A
8:00 AM82 °FPartly sunny.10 mph74%29.98 "HgN/A
7:00 AM82 °FScattered clouds.8 mph70%29.95 "HgN/A
6:00 AM81 °FScattered clouds.9 mph79%29.95 "HgN/A
5:00 AM81 °FPassing clouds.8 mph79%29.95 "HgN/A
4:00 AM81 °FPassing clouds.8 mph79%29.92 "HgN/A
3:00 AM79 °FPassing clouds.8 mph84%29.95 "HgN/A
2:00 AM81 °FPassing clouds.9 mph79%29.95 "HgN/A
1:00 AM81 °FPassing clouds.8 mph74%29.95 "HgN/A
12:00 AM81 °FPassing clouds.13 mph74%29.98 "HgN/A
11:00 PM
Sat, Aug 1
79 °FPassing clouds.18 mph84%29.98 "HgN/A
10:00 PM81 °FSprinkles. Passing clouds.15 mph84%29.98 "HgN/A
9:00 PM81 °FPassing clouds.15 mph79%29.98 "HgN/A
8:00 PM82 °FPassing clouds.13 mph70%29.95 "HgN/A
7:00 PM82 °FPassing clouds.13 mph70%29.95 "HgN/A
Weather by CustomWeather, © 2015

See weather overviewHow to use our weather pages